Location: Unspecified
(50.9517°N, 0.0000°E)
Time: 03:25:40
(UTC+00:00)

PEGASUS DEB - Visible Passes

Search period start: 04 April 2026 00:00
Search period end: 14 April 2026 00:00
Orbit: 551 x 885 km, 81.9° (Epoch: 28 March)

Date Brightness Start Highest point End Pass type
(mag) Time Alt. Az. Time Alt. Az. Time Alt. Az.
4 Apr ? 04:34:21 10° SE 04:37:27 21° E 04:40:39 10° NE visible
6 Apr ? 04:30:40 10° SSE 04:34:09 28° E 04:37:49 10° NNE visible
7 Apr ? 03:41:48 10° E 03:43:07 11° E 03:44:27 10° ENE visible
8 Apr ? 04:27:05 10° SSE 04:30:52 37° E 04:34:54 10° NNE visible
9 Apr ? 03:37:18 10° ESE 03:39:44 15° E 03:42:14 10° NE visible
10 Apr ? 04:23:34 10° S 04:27:33 49° E 04:31:53 10° NNE visible
11 Apr ? 03:33:16 10° SE 03:36:20 20° E 03:39:34 10° NE visible
12 Apr ? 04:20:06 10° S 04:24:16 66° E 04:28:48 10° NNE visible
13 Apr ? 03:29:24 10° SE 03:32:56 26° E 03:36:43 10° NNE visible
